Location: Chud�w
(50.2108°N, 18.7778°E)
Time: 12:24:35
(UTC+00:00)

Daily predictions for brighter satellites

Satellite Brightness Start Highest point End
(mag) Time Altitude Azimuth Time Altitude Azimuth Time Altitude Azimuth
Cosmos 2154 Rocket 4.1 15:11:22 10° N 15:17:45 87° ENE 15:24:07 10° S
Cosmos 1606 3.2 15:15:58 10° SSE 15:19:37 40° E 15:23:17 10° NNE
Landsat 5 4.2 15:18:17 10° NNE 15:22:30 39° E 15:26:45 10° SSE
SMAP 3.4 15:24:12 10° SE 15:28:36 44° ENE 15:33:02 10° N
Sich 1 3.0 15:25:27 10° N 15:29:50 74° ENE 15:34:10 10° SSE
Cosmos 482 Debris 3.4 15:29:17 10° W 15:31:04 45° SSW 15:32:50 10° SE
YAOGAN 1 4.5 15:33:06 10° ENE 15:34:08 11° NE 15:35:11 10° NE
Cosmos 1470 Rocket 4.4 15:30:38 10° N 15:34:23 28° ENE 15:38:06 10° SE
SL-8 Rocket 4.1 15:29:50 10° N 15:35:57 54° ENE 15:42:06 10° SSE
Cosmos 1151 Rocket 3.8 15:32:32 10° SSE 15:36:17 30° E 15:40:02 10° NNE
CZ-4C R/B 3.3 15:32:56 10° NNE 15:36:31 52° E 15:40:02 10° S
Cosmos 2341 Rocket 4.0 15:31:01 10° N 15:37:19 70° ENE 15:43:39 10° SSE
Radarsat Rocket 4.2 15:33:15 10° SSE 15:39:28 80° ENE 15:46:33 10° NNW
CZ-2C R/B 4.3 15:39:07 10° E 15:42:12 17° ENE 15:45:13 10° NNE
CZ-4B DEB 4.3 15:36:55 10° SSE 15:42:24 82° WSW 15:47:54 10° NNW
USA 281 4.0 15:38:39 10° E 15:44:05 29° NE 15:49:32 10° NNW
Cosmos 2360 Rocket 4.3 15:41:26 10° WNW 15:44:50 16° NNW 15:48:15 10° N
Cosmos 2333 Rocket 3.9 15:40:40 10° W 15:45:23 26° NW 15:50:07 10° NNE
Cosmos 2285 Rocket 4.0 15:41:11 10° NNW 15:47:39 81° ENE 15:53:59 10° SSE
Cosmos 2219 Rocket 3.9 15:42:56 10° W 15:47:40 27° NW 15:52:25 10° NNE
COSMO-SKYMED 1 4.1 15:45:53 12° ENE 15:48:04 16° E 15:50:48 10° SE
USA 81 4.2 15:44:32 10° N 15:49:43 53° E 15:54:52 10° SSE
TELKOM 3 3.1 15:47:43 10° W 15:50:37 85° S 15:52:24 17° E
COSMOS 2428 4.3 15:47:37 10° WSW 15:52:32 29° NW 15:57:29 10° NNE
CORIOLIS 4.2 15:47:36 10° SSE 15:52:57 65° ENE 15:58:22 10° N
USA 267 3.6 15:46:49 10° E 15:53:07 52° N 15:59:26 10° WNW
X-37B 2.7 15:52:37 10° SSW 15:54:55 18° SSE 15:57:11 10° ESE
PAYLOAD B 4.4 15:49:49 10° SSE 15:55:24 78° WSW 16:01:00 10° NNW
H-2A R/B 3.4 15:54:40 11° E 15:57:34 17° NE 16:00:49 10° NNE
Helios 1A Rocket 4.3 15:57:11 15° E 15:58:17 17° ENE 16:00:56 10° NNE
Meteor 1-4 Rocket 3.2 15:57:34 10° SSE 16:00:47 32° E 16:03:14 15° NE
Meteor 1-20 Rocket 4.3 15:55:53 10° NNW 16:01:48 85° ENE 16:07:37 10° SSE
Cosmos 44 Rocket 4.0 15:56:59 10° NNW 16:01:48 38° NE 16:06:21 12° ESE
Cosmos 1328 Rocket 3.7 15:59:44 10° S 16:03:55 50° E 16:08:08 10° NNE
Cosmos 2181 Rocket 4.0 15:57:49 10° S 16:04:07 66° E 16:10:24 10° NNE
Cosmos 1939 Rocket 3.4 16:00:49 10° SE 16:04:19 33° ENE 16:07:54 10° N
Cosmos 1933 Rocket 4.1 16:00:21 10° N 16:04:33 38° ENE 16:08:42 10° SE
Cosmos 1666 Rocket 3.8 16:01:15 10° NNW 16:05:41 76° W 16:10:07 10° S
CZ-4 R/B 2.6 16:05:25 18° E 16:06:37 20° ENE 16:09:38 10° NNE
Cosmos 389 Rocket 3.3 16:03:38 10° SSW 16:06:58 50° WNW 16:10:19 10° N
Cosmos 2237 Rocket 3.2 16:02:07 10° WSW 16:07:29 44° NW 16:12:54 10° NNE
NOAA 11 4.1 16:03:20 10° SSE 16:08:41 67° ENE 16:14:07 10° N
Cosmos 1602 3.7 16:05:19 10° N 16:09:12 58° ENE 16:13:02 10° SSE
CZ-4B R/B 3.2 16:04:33 10° SSE 16:09:52 82° WSW 16:15:12 10° NNW
Meteor 1-26 Rocket 4.4 16:06:14 10° S 16:12:08 59° E 16:18:02 10° NNE
H-2A R/B 3.6 16:08:44 10° S 16:12:49 48° W 16:16:46 10° NNW
Cosmos 2369 Rocket 2.1 16:09:33 10° NNW 16:15:17 72° ENE 16:20:56 10° SE
Cosmos 1943 4.1 16:11:03 10° SSE 16:15:45 27° ESE 16:18:07 20° ENE
ADEOS Rocket 4.0 16:08:11 10° N 16:15:52 68° WNW 16:23:30 10° SSW
Cosmos 1943 Rocket 2.4 16:11:16 10° NNW 16:16:50 75° WSW 16:22:24 10° SSE
Meteor 1-14 Rocket 4.3 16:11:10 10° N 16:17:07 63° ENE 16:23:04 10° SSE
Cosmos 1538 Rocket 4.3 16:14:09 10° S 16:19:17 48° ESE 16:23:21 16° NE
NOAA 12 4.4 16:14:14 10° S 16:19:33 73° WSW 16:24:53 10° NNW
H-2A R/B 2.1 16:16:13 10° NNE 16:20:27 77° WNW 16:24:44 10° SSW
CENTAUR R/B 4.0 16:17:07 10° SE 16:20:28 15° ESE 16:20:30 15° ESE
CZ-2D R/B 3.8 16:18:14 10° SE 16:21:45 35° ENE 16:25:17 10° N
SL-08 R/B 4.4 16:19:47 10° N 16:25:55 63° ENE 16:31:57 10° SSE
Okean O Rocket 2.1 16:22:03 10° S 16:26:22 63° WSW 16:30:45 10° NNW
ARGOS 4.2 16:27:01 23° ENE 16:27:06 23° ENE 16:31:14 10° N
Cosmos 1782 2.7 16:23:49 10° S 16:27:44 63° E 16:31:08 14° NNE
Okean-O 3.2 16:23:57 10° SE 16:27:56 34° ENE 16:31:56 10° N
Cosmos 2056 Rocket 4.4 16:23:36 10° N 16:28:05 27° NE 16:29:05 25° ENE
Cosmos 1633 Rocket 3.9 16:25:37 10° NNW 16:29:53 52° W 16:34:06 10° S
DEBRIS 4.5 16:13:46 10° W 16:31:02 83° S 16:34:04 24° ESE
ISS -3.8 16:28:41 10° WNW 16:32:04 70° N 16:32:58 44° ENE
Cosmos 1933 4.0 16:29:31 10° SSW 16:33:29 56° WNW 16:37:31 10° N
Cosmos 2218 Rocket 4.2 16:30:10 10° NNW 16:36:18 71° W 16:42:25 10° S
SKYMED 2 3.9 16:34:31 26° NE 16:36:33 44° E 16:40:43 10° S
Cosmos 2366 rocket 4.2 16:31:06 10° NNW 16:37:16 73° W 16:43:22 10° S
ERS-2 2.1 16:36:10 33° NE 16:37:35 56° ESE 16:41:11 10° S
Cosmos 1869 Rocket 4.1 16:35:05 10° N 16:39:16 36° ENE 16:40:22 31° ESE
Cosmos 1867 4.4 16:35:50 10° WSW 16:41:03 46° NW 16:44:54 18° NNE
Cosmos 489 Rocket 4.4 16:38:13 10° SSW 16:44:25 80° ESE 16:49:47 15° NNE
Cosmos 371 Rocket 3.7 16:44:29 10° NNW 16:49:05 38° ENE 16:49:18 38° ENE
Lacrosse 5 rocket 1.5 16:46:00 10° W 16:49:33 49° NNW 16:50:15 42° NNE
Cosmos 773 Rocket 4.4 16:44:59 10° SW 16:50:13 65° WNW 16:54:45 14° NNE
SL-23 DEB 4.5 16:47:04 10° SW 16:50:50 58° SSE 16:52:39 37° E
NOSS 3-2 (A) 3.9 16:47:37 10° S 16:52:48 38° ESE 16:54:01 34° E
Feng Yun 1-1 Rocket 4.5 16:51:09 10° S 16:56:53 75° WSW 17:02:28 10° NNW
CZ-4B R/B 1.6 16:56:26 47° NNW 16:57:05 63° WNW 17:00:13 10° SSW
Cosmos 2239 Rocket 4.4 16:52:12 10° N 16:58:22 65° ENE 17:04:30 10° SSE
SL-16 R/B 3.1 16:55:12 10° SW 17:00:36 45° NW 17:05:04 15° NNE
USA 215 3.8 16:59:21 33° E 17:01:16 40° SE 17:07:20 10° SSW
BREEZE-M DEB (TANK) 3.9 17:02:27 10° WSW 17:03:26 23° SW 17:03:26 23° SW
Cosmos 1500 3.3 17:01:43 10° NNW 17:05:32 76° W 17:09:21 10° S
YAOGAN 1 2.4 17:09:18 68° E 17:09:26 69° ENE 17:13:46 10° N
Cosmos 1656 Rocket 3.7 17:05:07 10° NNW 17:10:47 80° WSW 17:16:21 10° SSE
SL-24 DEB 4.3 17:06:14 10° N 17:11:00 78° W 17:15:41 10° SSW
USA 238 DEB 3.9 17:05:44 10° SSW 17:11:58 47° ESE 17:13:06 43° E
USA 238 3.9 17:05:50 10° SSW 17:12:04 47° ESE 17:13:10 43° E
MOS 1 Rocket 3.6 17:13:25 52° ENE 17:14:09 56° E 17:19:26 10° S
NOAA 15 4.5 17:13:16 10° SSE 17:18:34 85° ENE 17:23:52 10° NNW
STPSAT 2 (USA 217) 4.4 17:14:58 10° SSW 17:19:30 87° ESE 17:19:43 81° NE
Cosmos 158 Rocket 3.8 17:16:18 10° SSW 17:20:55 65° SE 17:20:55 65° SE
Cosmos 1934 Rocket 3.9 17:14:56 10° N 17:21:18 68° ENE 17:27:34 10° SSE
CZ-2C R/B 2.9 17:16:34 10° SSE 17:21:32 82° WSW 17:26:22 10° NNW
SWAS 4.5 17:19:56 10° SW 17:24:10 76° WNW 17:24:10 76° WNW
Cosmos 1238 Rocket 3.1 17:20:38 10° NNW 17:24:32 75° W 17:29:19 10° S
Cosmos 923 Rocket 3.8 17:19:24 10° SSW 17:24:35 74° ESE 17:24:50 72° E
COSMO-SKYMED 1 2.9 17:23:06 37° N 17:24:40 64° WNW 17:28:57 10° SSW
USA 281 3.2 17:21:24 10° SSE 17:27:59 85° WSW 17:34:37 10° NNW
CSL-04 Debris 4.0 17:27:30 49° SE 17:28:59 75° ENE 17:34:29 10° NNW
Nadezhda 3 Rocket 4.0 17:24:36 10° S 17:31:00 83° W 17:37:24 10° N
X-37B 3.1 17:28:09 10° WSW 17:29:28 20° SW 17:29:28 20° SW
Helios 1A Rocket 3.4 17:33:25 57° WNW 17:33:25 57° WNW 17:37:03 10° NNW
Meteor 2-6 Rocket 4.3 17:28:34 10° SSW 17:34:07 73° WNW 17:37:14 26° N
Cosmos 2228 Rocket 3.3 17:29:40 10° SSW 17:34:12 69° WNW 17:34:29 67° NW
USA 267 3.1 17:34:10 54° ESE 17:35:51 86° NNE 17:42:27 10° WNW
H-2A R/B 1.9 17:35:18 58° SSE 17:36:22 90° WNW 17:41:30 10° NNW
Cosmos 1821 Rocket 4.5 17:30:59 10° NNW 17:37:07 60° W 17:43:19 10° S
Cosmos 1812 4.1 17:34:15 10° SSW 17:36:35 33° SW 17:36:35 33° SW
Meteor 1-11 Rocket 3.8 17:34:37 10° NNW 17:40:25 80° W 17:46:18 10° S
CZ-4 R/B 2.3 17:41:26 47° W 17:41:26 47° W 17:45:18 10° NNW
Cosmos 44 Rocket 4.1 17:38:32 10° NW 17:43:33 51° WSW 17:45:09 37° S
CSL-04 Rocket 3.5 17:44:05 81° NNW 17:44:05 81° NNW 17:49:09 10° NNW
Cosmos 1980 Rocket 4.4 17:44:26 10° N 17:45:17 12° N 17:45:17 12° N
Cosmos 1680 Rocket 3.9 17:46:11 10° SSW 17:50:18 56° SSW 17:50:18 56° SSW
Cosmos 1603 4.2 17:50:33 10° SW 17:56:04 56° NW 17:56:56 50° NNW
Cosmos 1943 3.6 17:53:49 10° SW 17:59:25 60° NW 17:59:58 57° NNW
Okean-O 4.3 18:00:28 10° SSW 18:04:26 31° W 18:08:24 10° NNW
ARGOS 4.0 18:08:32 45° NW 18:08:32 45° NW 18:12:18 10° NNW
ISS -0.4 18:05:33 10° WNW 18:05:55 12° W 18:05:55 12° W
CENTAUR R/B 3.1 18:03:41 10° SSW 18:07:44 47° SSW 18:07:44 47° SSW
Cosmos 2056 Rocket 4.3 18:05:23 10° NNW 18:09:28 48° WNW 18:09:28 48° WNW
NOSS 3-2 (C) 4.4 18:12:03 10° SW 18:15:09 35° SSW 18:15:09 35° SSW
NOSS 3-2 (A) 4.5 18:37:35 10° WSW 18:41:27 41° W 18:41:27 41° W
USA 215 3.9 18:46:43 48° WSW 18:46:43 48° WSW 18:51:14 10° WSW
